14/04/2024 21:15:00,1.261
14/04/2024 21:30:00,1.258
14/04/2024 21:45:00,1.258
14/04/2024 22:00:00,1.259
14/04/2024 22:15:00,1.257
14/04/2024 22:30:00,1.256
14/04/2024 22:45:00,1.255
14/04/2024 23:00:00,1.255
14/04/2024 23:15:00,1.255
14/04/2024 23:30:00,1.256
14/04/2024 23:45:00,1.256
15/04/2024 00:00:00,1.256
15/04/2024 00:15:00,1.255
15/04/2024 00:30:00,1.255
15/04/2024 00:45:00,1.255
15/04/2024 01:00:00,1.255
15/04/2024 01:15:00,1.256
15/04/2024 01:30:00,1.256
15/04/2024 01:45:00,1.256
15/04/2024 02:00:00,1.255
15/04/2024 02:15:00,1.258
15/04/2024 02:30:00,1.261
15/04/2024 02:45:00,1.263
15/04/2024 03:00:00,1.265
15/04/2024 03:15:00,1.267
15/04/2024 03:30:00,1.267
15/04/2024 03:45:00,1.27
15/04/2024 04:00:00,1.273
15/04/2024 04:15:00,1.274
15/04/2024 04:30:00,1.277
15/04/2024 04:45:00,1.279
15/04/2024 05:00:00,1.279
15/04/2024 05:15:00,1.283
15/04/2024 05:30:00,1.286
15/04/2024 05:45:00,1.288
15/04/2024 06:00:00,1.292
15/04/2024 06:15:00,1.296
15/04/2024 06:30:00,1.3
15/04/2024 06:45:00,1.307
15/04/2024 07:00:00,1.312
15/04/2024 07:15:00,1.319
15/04/2024 07:30:00,1.323
15/04/2024 07:45:00,1.329
15/04/2024 08:00:00,1.335
15/04/2024 08:15:00,1.344
15/04/2024 08:30:00,1.353
15/04/2024 08:45:00,1.363
15/04/2024 09:00:00,1.373
15/04/2024 09:15:00,1.383
15/04/2024 09:30:00,1.396
15/04/2024 09:45:00,1.407
15/04/2024 10:00:00,1.42
15/04/2024 10:15:00,1.432
15/04/2024 10:30:00,1.449
15/04/2024 10:45:00,1.463
15/04/2024 11:00:00,1.477
15/04/2024 11:15:00,1.492
15/04/2024 11:30:00,1.509
15/04/2024 11:45:00,1.526
15/04/2024 12:00:00,1.54
15/04/2024 12:15:00,1.552
15/04/2024 12:30:00,1.566
15/04/2024 12:45:00,1.573
15/04/2024 13:00:00,1.589
15/04/2024 13:15:00,1.599
15/04/2024 13:30:00,1.607
15/04/2024 13:45:00,1.617
15/04/2024 14:00:00,1.627
15/04/2024 14:15:00,1.635
15/04/2024 14:30:00,1.639
15/04/2024 14:45:00,1.644
15/04/2024 15:00:00,1.65
15/04/2024 15:15:00,1.656
15/04/2024 15:30:00,1.651
15/04/2024 15:45:00,1.655
15/04/2024 16:00:00,1.658
15/04/2024 16:15:00,1.658
15/04/2024 16:30:00,1.659
15/04/2024 16:45:00,1.656
15/04/2024 17:00:00,1.658
15/04/2024 17:15:00,1.656
15/04/2024 17:30:00,1.653
15/04/2024 17:45:00,1.649
15/04/2024 18:00:00,1.647
15/04/2024 18:15:00,1.644
15/04/2024 18:30:00,1.64
15/04/2024 18:45:00,1.637
15/04/2024 19:00:00,1.633
15/04/2024 19:15:00,1.625
15/04/2024 19:30:00,1.623
15/04/2024 19:45:00,1.616
15/04/2024 20:00:00,1.61
15/04/2024 20:15:00,1.604
15/04/2024 20:30:00,1.599
15/04/2024 20:45:00,1.592
15/04/2024 21:00:00,1.587
15/04/2024 21:15:00,1.582
15/04/2024 21:30:00,1.577
15/04/2024 21:45:00,1.572
15/04/2024 22:00:00,1.566
15/04/2024 22:15:00,1.56
15/04/2024 22:30:00,1.556
15/04/2024 22:45:00,1.55
15/04/2024 23:00:00,1.546
15/04/2024 23:15:00,1.538
15/04/2024 23:30:00,1.531
15/04/2024 23:45:00,1.527
16/04/2024 00:00:00,1.526
16/04/2024 00:15:00,1.518
16/04/2024 00:30:00,1.514
16/04/2024 00:45:00,1.508
16/04/2024 01:00:00,1.504
16/04/2024 01:15:00,1.497
16/04/2024 01:30:00,1.494
16/04/2024 01:45:00,1.487
16/04/2024 02:00:00,1.484
16/04/2024 02:15:00,1.48
16/04/2024 02:30:00,1.475
16/04/2024 02:45:00,1.472
16/04/2024 03:00:00,1.468
16/04/2024 03:15:00,1.463
16/04/2024 03:30:00,1.459
16/04/2024 03:45:00,1.457
16/04/2024 04:00:00,1.455
16/04/2024 04:15:00,1.451
16/04/2024 04:30:00,1.45
16/04/2024 04:45:00,1.447
16/04/2024 05:00:00,1.446
16/04/2024 05:15:00,1.444
16/04/2024 05:30:00,1.443
16/04/2024 05:45:00,1.441
16/04/2024 06:00:00,1.44
16/04/2024 06:15:00,1.44
16/04/2024 06:30:00,1.437
16/04/2024 06:45:00,1.437
16/04/2024 07:00:00,1.436
16/04/2024 07:15:00,1.436
16/04/2024 07:30:00,1.431
16/04/2024 07:45:00,1.432
16/04/2024 08:00:00,1.432
16/04/2024 08:15:00,1.43
16/04/2024 08:30:00,1.429
16/04/2024 08:45:00,1.429
16/04/2024 09:00:00,1.426
16/04/2024 09:15:00,1.422
16/04/2024 09:30:00,1.42
16/04/2024 09:45:00,1.418
16/04/2024 10:00:00,1.418
16/04/2024 10:15:00,1.416
16/04/2024 10:30:00,1.415
16/04/2024 10:45:00,1.412
16/04/2024 11:00:00,1.409
16/04/2024 11:15:00,1.408
16/04/2024 11:30:00,1.406
16/04/2024 11:45:00,1.403
16/04/2024 12:00:00,1.4
16/04/2024 12:15:00,1.398
16/04/2024 12:30:00,1.397
16/04/2024 12:45:00,1.393
16/04/2024 13:00:00,1.395
16/04/2024 13:15:00,1.392
16/04/2024 13:30:00,1.388
16/04/2024 13:45:00,1.387
16/04/2024 14:00:00,1.385
16/04/2024 14:15:00,1.382
16/04/2024 14:30:00,1.379
16/04/2024 14:45:00,1.381
16/04/2024 15:00:00,1.377
16/04/2024 15:15:00,1.373
16/04/2024 15:30:00,1.367
16/04/2024 15:45:00,1.364
16/04/2024 16:00:00,1.362
16/04/2024 16:15:00,1.359
16/04/2024 16:30:00,1.354
16/04/2024 16:45:00,1.352
16/04/2024 17:00:00,1.346
16/04/2024 17:15:00,1.343
16/04/2024 17:30:00,1.341
16/04/2024 17:45:00,1.337
16/04/2024 18:00:00,1.332
16/04/2024 18:15:00,1.328
16/04/2024 18:30:00,1.323
16/04/2024 18:45:00,1.322
16/04/2024 19:00:00,1.319
16/04/2024 19:15:00,1.318
16/04/2024 19:30:00,1.312
16/04/2024 19:45:00,1.31
16/04/2024 20:00:00,1.309
16/04/2024 20:15:00,1.305
16/04/2024 20:30:00,1.3
16/04/2024 20:45:00,1.299
16/04/2024 21:00:00,1.297
16/04/2024 21:15:00,1.294
16/04/2024 21:30:00,1.29
16/04/2024 21:45:00,1.289
16/04/2024 22:00:00,1.287
16/04/2024 22:15:00,1.285
16/04/2024 22:30:00,1.283
16/04/2024 22:45:00,1.28
16/04/2024 23:00:00,1.277
16/04/2024 23:15:00,1.276
16/04/2024 23:30:00,1.275
16/04/2024 23:45:00,1.273
17/04/2024 00:00:00,1.27
17/04/2024 00:15:00,1.267
17/04/2024 00:30:00,1.266
17/04/2024 00:45:00,1.265
17/04/2024 01:00:00,1.263
17/04/2024 01:15:00,1.262
17/04/2024 01:30:00,1.259
17/04/2024 01:45:00,1.256
17/04/2024 02:00:00,1.255
17/04/2024 02:15:00,1.253
17/04/2024 02:30:00,1.252
17/04/2024 02:45:00,1.251
17/04/2024 03:00:00,1.25
17/04/2024 03:15:00,1.248
17/04/2024 03:30:00,1.248
17/04/2024 03:45:00,1.246
17/04/2024 04:00:00,1.245
17/04/2024 04:15:00,1.246
17/04/2024 04:30:00,1.246
17/04/2024 04:45:00,1.245
17/04/2024 05:00:00,1.246
17/04/2024 05:15:00,1.248
17/04/2024 05:30:00,1.25
17/04/2024 05:45:00,1.252
17/04/2024 06:00:00,1.254
17/04/2024 06:15:00,1.255
17/04/2024 06:30:00,1.257
17/04/2024 06:45:00,1.259
17/04/2024 07:00:00,1.263
17/04/2024 07:15:00,1.263
17/04/2024 07:30:00,1.266
17/04/2024 07:45:00,1.266
17/04/2024 08:00:00,1.267
17/04/2024 08:15:00,1.268
17/04/2024 08:30:00,1.269
17/04/2024 08:45:00,1.27
17/04/2024 09:00:00,1.27
17/04/2024 09:15:00,1.269
17/04/2024 09:30:00,1.27
17/04/2024 09:45:00,1.272
17/04/2024 10:00:00,1.27
17/04/2024 10:15:00,1.272
17/04/2024 10:30:00,1.272
17/04/2024 10:45:00,1.27
17/04/2024 11:00:00,1.269
17/04/2024 11:15:00,1.269
17/04/2024 11:30:00,1.269
17/04/2024 11:45:00,1.269
17/04/2024 12:00:00,1.269
17/04/2024 12:15:00,1.269
17/04/2024 12:30:00,1.269
17/04/2024 12:45:00,1.269
17/04/2024 13:00:00,1.267
17/04/2024 13:15:00,1.265
17/04/2024 13:30:00,1.266
17/04/2024 13:45:00,1.266
17/04/2024 14:00:00,1.265
17/04/2024 14:15:00,1.265
17/04/2024 14:30:00,1.264
17/04/2024 14:45:00,1.265
17/04/2024 15:00:00,1.263
17/04/2024 15:15:00,1.262
17/04/2024 15:30:00,1.259
17/04/2024 15:45:00,1.258
17/04/2024 16:00:00,1.257
17/04/2024 16:15:00,1.255
17/04/2024 16:30:00,1.255
17/04/2024 16:45:00,1.252
17/04/2024 17:00:00,1.247
17/04/2024 17:15:00,1.246
17/04/2024 17:30:00,1.243
17/04/2024 17:45:00,1.238
17/04/2024 18:00:00,1.234
17/04/2024 18:15:00,1.23
17/04/2024 18:30:00,1.226
17/04/2024 18:45:00,1.223
17/04/2024 19:00:00,1.22
17/04/2024 19:15:00,1.215
17/04/2024 19:30:00,1.212
17/04/2024 19:45:00,1.21
17/04/2024 20:00:00,1.205
17/04/2024 20:15:00,1.203
17/04/2024 20:30:00,1.201
17/04/2024 20:45:00,1.199
17/04/2024 21:00:00,1.196
17/04/2024 21:15:00,1.193
17/04/2024 21:30:00,1.191
17/04/2024 21:45:00,1.189
17/04/2024 22:00:00,1.189
17/04/2024 22:15:00,1.186
17/04/2024 22:30:00,1.185
17/04/2024 22:45:00,1.182
17/04/2024 23:00:00,1.18
17/04/2024 23:15:00,1.18
17/04/2024 23:30:00,1.179
17/04/2024 23:45:00,1.177
18/04/2024 00:00:00,1.175
18/04/2024 00:15:00,1.172
18/04/2024 00:30:00,1.171
18/04/2024 00:45:00,1.17
18/04/2024 01:00:00,1.17
18/04/2024 01:15:00,1.168
18/04/2024 01:30:00,1.168
18/04/2024 01:45:00,1.166
18/04/2024 02:00:00,1.166
18/04/2024 02:15:00,1.164
18/04/2024 02:30:00,1.162
18/04/2024 02:45:00,1.162
18/04/2024 03:00:00,1.16
18/04/2024 03:15:00,1.159
18/04/2024 03:30:00,1.159
18/04/2024 03:45:00,1.158
18/04/2024 04:00:00,1.156
18/04/2024 04:15:00,1.156
18/04/2024 04:30:00,1.155
18/04/2024 04:45:00,1.154
18/04/2024 05:00:00,1.153
18/04/2024 05:15:00,1.151
18/04/2024 05:30:00,1.15
18/04/2024 05:45:00,1.15
18/04/2024 06:00:00,1.148
18/04/2024 06:15:00,1.147
18/04/2024 06:30:00,1.147
18/04/2024 06:45:00,1.147
18/04/2024 07:00:00,1.145
18/04/2024 07:15:00,1.145
18/04/2024 07:30:00,1.145
18/04/2024 07:45:00,1.143
18/04/2024 08:00:00,1.143
18/04/2024 08:15:00,1.143
18/04/2024 08:30:00,1.14
18/04/2024 08:45:00,1.139
18/04/2024 09:00:00,1.138
18/04/2024 09:15:00,1.137
18/04/2024 09:30:00,1.136
18/04/2024 09:45:00,1.137
18/04/2024 10:00:00,1.136
18/04/2024 10:15:00,1.136
18/04/2024 10:30:00,1.136
18/04/2024 10:45:00,1.134
18/04/2024 11:00:00,1.134
18/04/2024 11:15:00,1.134
18/04/2024 11:30:00,1.134
18/04/2024 11:45:00,1.132
18/04/2024 12:00:00,1.132
18/04/2024 12:15:00,1.131
18/04/2024 12:30:00,1.129
18/04/2024 12:45:00,1.129
18/04/2024 13:00:00,1.127
18/04/2024 13:15:00,1.129
18/04/2024 13:30:00,1.127
18/04/2024 13:45:00,1.129
18/04/2024 14:00:00,1.126
18/04/2024 14:15:00,1.126
18/04/2024 14:30:00,1.125
18/04/2024 14:45:00,1.122
18/04/2024 15:00:00,1.125
18/04/2024 15:15:00,1.125
18/04/2024 15:30:00,1.125
18/04/2024 15:45:00,1.127
18/04/2024 16:00:00,1.126
18/04/2024 16:15:00,1.127
18/04/2024 16:30:00,1.125
18/04/2024 16:45:00,1.125
18/04/2024 17:00:00,1.124
18/04/2024 17:15:00,1.125
18/04/2024 17:30:00,1.123
18/04/2024 17:45:00,1.125
18/04/2024 18:00:00,1.124
18/04/2024 18:15:00,1.122
18/04/2024 18:30:00,1.122
18/04/2024 18:45:00,1.121
18/04/2024 19:00:00,1.122
18/04/2024 19:15:00,1.122
18/04/2024 19:30:00,1.122
18/04/2024 19:45:00,1.122
18/04/2024 20:00:00,1.121
18/04/2024 20:15:00,1.122
18/04/2024 20:30:00,1.123
18/04/2024 20:45:00,1.122
18/04/2024 21:00:00,1.12
18/04/2024 21:15:00,1.12
18/04/2024 21:30:00,1.12
18/04/2024 21:45:00,1.12
18/04/2024 22:00:00,1.121
18/04/2024 22:15:00,1.121
18/04/2024 22:30:00,1.12
18/04/2024 22:45:00,1.117
18/04/2024 23:00:00,1.117
18/04/2024 23:15:00,1.118
18/04/2024 23:30:00,1.116
18/04/2024 23:45:00,1.115
19/04/2024 00:00:00,1.115
19/04/2024 00:15:00,1.114
19/04/2024 00:30:00,1.114
19/04/2024 00:45:00,1.113
19/04/2024 01:00:00,1.114
19/04/2024 01:15:00,1.114
19/04/2024 01:30:00,1.112
19/04/2024 01:45:00,1.113
19/04/2024 02:00:00,1.114
19/04/2024 02:15:00,1.114
19/04/2024 02:30:00,1.114
19/04/2024 02:45:00,1.113
19/04/2024 03:00:00,1.112
19/04/2024 03:15:00,1.112
19/04/2024 03:30:00,1.11
19/04/2024 03:45:00,1.112
19/04/2024 04:00:00,1.11
19/04/2024 04:15:00,1.11
19/04/2024 04:30:00,1.109
19/04/2024 04:45:00,1.11
19/04/2024 05:00:00,1.109
19/04/2024 05:15:00,1.11
19/04/2024 05:30:00,1.11
19/04/2024 05:45:00,1.11
19/04/2024 06:00:00,1.11
19/04/2024 06:15:00,1.109
19/04/2024 06:30:00,1.109
19/04/2024 06:45:00,1.109
19/04/2024 07:00:00,1.106
19/04/2024 07:15:00,1.106
19/04/2024 07:30:00,1.105
19/04/2024 07:45:00,1.106
19/04/2024 08:00:00,1.107
19/04/2024 08:15:00,1.104
19/04/2024 08:30:00,1.104
19/04/2024 08:45:00,1.103
19/04/2024 09:00:00,1.103
19/04/2024 09:15:00,1.103
19/04/2024 09:30:00,1.104
19/04/2024 09:45:00,1.102
19/04/2024 10:00:00,1.102
19/04/2024 10:15:00,1.102
19/04/2024 10:30:00,1.099
19/04/2024 10:45:00,1.1
19/04/2024 11:00:00,1.099
19/04/2024 11:15:00,1.1
19/04/2024 11:30:00,1.096
19/04/2024 11:45:00,1.096
19/04/2024 12:00:00,1.096
19/04/2024 12:15:00,1.095
19/04/2024 12:30:00,1.094
19/04/2024 12:45:00,1.092
19/04/2024 13:00:00,1.092
19/04/2024 13:15:00,1.092
19/04/2024 13:30:00,1.092
19/04/2024 13:45:00,1.092
19/04/2024 14:00:00,1.092
19/04/2024 14:15:00,1.09
19/04/2024 14:30:00,1.09
19/04/2024 14:45:00,1.089
19/04/2024 15:00:00,1.089
19/04/2024 15:15:00,1.089
19/04/2024 15:30:00,1.088
19/04/2024 15:45:00,1.087
19/04/2024 16:00:00,1.085
19/04/2024 16:15:00,1.087
19/04/2024 16:30:00,1.085
19/04/2024 16:45:00,1.083
19/04/2024 17:00:00,1.084
19/04/2024 17:15:00,1.083
19/04/2024 17:30:00,1.083
19/04/2024 17:45:00,1.083
19/04/2024 18:00:00,1.082
19/04/2024 18:15:00,1.082
19/04/2024 18:30:00,1.082
19/04/2024 18:45:00,1.082
19/04/2024 19:00:00,1.081
19/04/2024 19:15:00,1.081
19/04/2024 19:30:00,1.079
